This demonstration page uses our WeatherBlox Daily Observations layout. Learn more.

Left ArrowRight Arrow

44.8408, -93.29828

Hourly Observations for November 24, 2019

Temp ( °F °C ) Dew Point ( °F °C ) Humidity (%) Winds ( mph kmh ) Pressure ( in mb ) Visibility ( mi km ) Precip ( " mm )
12:53 am 00:53 Clear 35 1.7 29 -1.7 78 78 W 5 7 29.65 1004 10 16 0.00 0.00
1:53 am 01:53 Clear 35 1.7 29 -1.7 78 78 WSW 5 7 29.64 1004 10 16 0.00 0.00
2:53 am 02:53 Clear 35 1.7 29 -1.7 78 78 SW 7 11 29.62 1003 10 16 0.00 0.00
3:53 am 03:53 Mostly Cloudy 35 1.7 29 -1.7 78 78 SW 7 11 29.62 1003 10 16 0.00 0.00
4:53 am 04:53 Mostly Clear 34 1.1 28 -2.2 79 79 WSW 5 7 29.63 1003 10 16 0.00 0.00
5:53 am 05:53 Mostly Clear 34 1.1 28 -2.2 79 79 SW 8 13 29.64 1004 10 16 0.00 0.00
6:53 am 06:53 Cloudy 34 1.1 28 -2.2 79 79 Calm 29.65 1004 10 16 0.00 0.00
7:53 am 07:53 Mostly Cloudy 34 1.1 28 -2.2 79 79 SSW 5 7 29.64 1004 10 16 0.00 0.00
8:53 am 08:53 Mostly Cloudy 36 2.2 29 -1.7 76 76 SSW 5 7 29.65 1004 10 16 0.00 0.00
9:53 am 09:53 Mostly Cloudy 38 3.3 29 -1.7 70 70 WSW 8 13 29.65 1004 10 16 0.00 0.00
10:53 am 10:53 Cloudy 40 4.4 30 -1.1 68 68 WSW 3 6 29.63 1004 10 16 0.00 0.00
11:53 am 11:53 Cloudy 41 5 31 -0.6 67 67 SW 3 6 29.61 1003 10 16 0.00 0.00
12:53 pm 12:53 Mostly Cloudy 42 5.6 31 -0.6 65 65 VRB 3 6 29.60 1002 10 16 0.00 0.00
1:53 pm 13:53 Mostly Cloudy 44 6.7 32 0 63 63 S 3 6 29.57 1001 10 16 0.00 0.00
2:53 pm 14:53 Cloudy 44 6.7 32 0 63 63 S 5 7 29.57 1001 10 16 0.00 0.00
3:53 pm 15:53 Cloudy 45 7.2 32 0 61 61 WSW 3 6 29.58 1002 10 16 0.00 0.00
4:53 pm 16:53 Cloudy 44 6.7 32 0 63 63 SSW 6 9 29.56 1001 10 16 0.00 0.00
5:53 pm 17:53 Cloudy 43 6.1 33 0.6 68 68 SW 5 7 29.57 1001 10 16 0.00 0.00
6:53 pm 18:53 Cloudy 41 5 33 0.6 73 73 SSE 7 11 29.54 1000 10 16 0.00 0.00
7:53 pm 19:53 Cloudy 42 5.6 33 0.6 71 71 VRB 3 6 29.54 1000 10 16 0.00 0.00
8:53 pm 20:53 Cloudy 42 5.6 33 0.6 71 71 VRB 5 7 29.53 1000 10 16 0.00 0.00
9:53 pm 21:53 Mostly Cloudy 41 5 34 1.1 76 76 S 6 9 29.51 999 10 16 0.00 0.00
10:53 pm 22:53 Mostly Clear 41 5 33 0.6 73 73 S 9 15 29.49 999 10 16 0.00 0.00
11:53 pm 23:53 Mostly Clear 40 4.4 33 0.6 77 77 SSW 5 7 29.48 998 10 16 0.00 0.00

Powered by AerisWeather